When you browse on this site, cookies collect data to enhance your experience and personalize the content and advertising you see.
Visit our Privacy Policy to learn more. By continuing to use the site, you agree to this use of cookies and data.
  • In Lithuania
  • List of Countries
  • For 7 days
  • Water Temperature
  • Weather Map
  • Weather Widgets
  • user-avatar
    Login

    Hourly Weather Luanda

    Today, 29 March, Sunday

    Time Temperature Precipitation Wind Pressure Humidity
    00:00 +27°C° 0 mm 4 mps 753 mmHg 88%
    01:00 +27°C° 0 mm 4 mps 753 mmHg 88%
    02:00 +27°C° 0 mm 4 mps 752 mmHg 90%
    03:00 +26°C° 0 mm 3 mps 752 mmHg 92%
    04:00 +26°C° 0 mm 3 mps 751 mmHg 94%
    05:00 +26°C° 0 mm 3 mps 752 mmHg 93%
    06:00 +26°C° 0 mm 3 mps 752 mmHg 92%
    07:00 +27°C° 0 mm 2 mps 753 mmHg 91%
    08:00 +28°C° 0 mm 2 mps 753 mmHg 84%
    09:00 +29°C° 0 mm 2 mps 753 mmHg 77%
    10:00 +31°C° 0 mm 2 mps 753 mmHg 69%
    11:00 +32°C° 0 mm 2 mps 753 mmHg 63%
    12:00 +35°C° 0 mm 3 mps 752 mmHg 58%
    13:00 +36°C° 0 mm 3 mps 751 mmHg 52%
    14:00 +35°C° 0 mm 4 mps 751 mmHg 56%
    15:00 +34°C° 0 mm 4 mps 750 mmHg 61%
    16:00 +33°C° 0 mm 5 mps 749 mmHg 66%
    17:00 +32°C° 0 mm 5 mps 750 mmHg 70%
    18:00 +29°C° 0 mm 5 mps 751 mmHg 75%
    19:00 +28°C° 0 mm 4 mps 751 mmHg 80%
    20:00 +28°C° 0 mm 4 mps 751 mmHg 82%
    21:00 +28°C° 0 mm 4 mps 752 mmHg 84%
    22:00 +27°C° 0 mm 4 mps 752 mmHg 85%
    23:00 +27°C° 0 mm 4 mps 752 mmHg 86%

    Tomorrow, 30 March, Monday

    Time Temperature Precipitation Wind Pressure Humidity
    00:00 +27°C° 0 mm 4 mps 752 mmHg 87%
    01:00 +27°C° 0 mm 4 mps 752 mmHg 88%
    02:00 +26°C° 0 mm 4 mps 751 mmHg 90%
    03:00 +26°C° 0 mm 3 mps 751 mmHg 92%
    04:00 +26°C° 0 mm 3 mps 750 mmHg 93%
    05:00 +26°C° 0 mm 3 mps 751 mmHg 93%
    06:00 +26°C° 0 mm 2 mps 751 mmHg 92%
    07:00 +26°C° 0 mm 2 mps 752 mmHg 91%
    08:00 +28°C° 0 mm 2 mps 752 mmHg 82%
    09:00 +30°C° 0 mm 1 mps 752 mmHg 72%
    10:00 +32°C° 0 mm 1 mps 753 mmHg 62%
    11:00 +34°C° 0 mm 2 mps 752 mmHg 59%
    12:00 +35°C° 0 mm 2 mps 751 mmHg 55%
    13:00 +36°C° 0 mm 3 mps 750 mmHg 52%
    14:00 +35°C° 0 mm 4 mps 750 mmHg 55%
    15:00 +35°C° 0 mm 4 mps 749 mmHg 57%
    16:00 +34°C° 0 mm 4 mps 748 mmHg 60%
    17:00 +32°C° 0 mm 5 mps 749 mmHg 67%
    18:00 +30°C° 0 mm 5 mps 749 mmHg 73%
    19:00 +28°C° 0 mm 5 mps 750 mmHg 79%
    20:00 +28°C° 0 mm 5 mps 750 mmHg 81%
    21:00 +27°C° 0 mm 4 mps 751 mmHg 84%
    22:00 +27°C° 0 mm 4 mps 751 mmHg 86%
    23:00 +27°C° 0 mm 4 mps 751 mmHg 88%

    Day after tomorrow, 31 March, Tuesday

    Time Temperature Precipitation Wind Pressure Humidity
    00:00 +26°C° 0 mm 3 mps 751 mmHg 89%
    01:00 +26°C° 0 mm 3 mps 751 mmHg 91%
    02:00 +26°C° 0 mm 3 mps 751 mmHg 92%
    03:00 +25°C° 0 mm 3 mps 751 mmHg 93%
    04:00 +25°C° 0 mm 2 mps 751 mmHg 95%
    05:00 +25°C° 0 mm 3 mps 751 mmHg 93%
    06:00 +26°C° 0 mm 3 mps 751 mmHg 91%
    07:00 +26°C° 0 mm 3 mps 752 mmHg 89%
    08:00 +28°C° 0 mm 2 mps 752 mmHg 79%
    09:00 +30°C° 0 mm 2 mps 753 mmHg 69%
    10:00 +32°C° 0 mm 1 mps 753 mmHg 58%
    11:00 +35°C° 0 mm 2 mps 752 mmHg 54%
    12:00 +36°C° 0 mm 3 mps 751 mmHg 50%
    13:00 +37°C° 0 mm 4 mps 751 mmHg 46%
    14:00 +36°C° 0 mm 5 mps 750 mmHg 51%
    15:00 +35°C° 0 mm 5 mps 750 mmHg 55%
    16:00 +34°C° 0 mm 6 mps 749 mmHg 60%
    17:00 +32°C° 0 mm 6 mps 750 mmHg 66%
    18:00 +30°C° 0 mm 6 mps 750 mmHg 72%
    19:00 +28°C° 0 mm 6 mps 751 mmHg 79%
    20:00 +28°C° 0 mm 5 mps 751 mmHg 82%
    21:00 +27°C° 0 mm 5 mps 752 mmHg 85%
    22:00 +27°C° 0 mm 4 mps 752 mmHg 88%
    23:00 +26°C° 0 mm 3 mps 752 mmHg 89%

    1 April, Wednesday

    Time Temperature Precipitation Wind Pressure Humidity
    00:00 +26°C° 0 mm 3 mps 752 mmHg 90%
    01:00 +26°C° 0 mm 2 mps 752 mmHg 91%
    02:00 +26°C° 0 mm 2 mps 752 mmHg 89%
    03:00 +27°C° 0 mm 2 mps 752 mmHg 86%
    04:00 +27°C° 0 mm 2 mps 752 mmHg 84%
    05:00 +27°C° 0 mm 2 mps 752 mmHg 82%
    06:00 +27°C° 0 mm 2 mps 753 mmHg 81%
    07:00 +28°C° 0 mm 2 mps 753 mmHg 79%
    08:00 +29°C° 0 mm 1 mps 754 mmHg 71%
    09:00 +31°C° 0 mm 1 mps 754 mmHg 63%
    10:00 +31°C° 0 mm 0 mps 754 mmHg 56%
    11:00 +34°C° 0 mm 1 mps 754 mmHg 53%
    12:00 +35°C° 0 mm 2 mps 753 mmHg 51%
    13:00 +36°C° 0 mm 4 mps 752 mmHg 49%
    14:00 +35°C° 0 mm 4 mps 751 mmHg 52%
    15:00 +35°C° 0 mm 4 mps 751 mmHg 55%
    16:00 +34°C° 0 mm 4 mps 750 mmHg 58%
    17:00 +32°C° 0 mm 4 mps 751 mmHg 65%
    18:00 +30°C° 0 mm 4 mps 751 mmHg 71%
    19:00 +28°C° 0 mm 4 mps 751 mmHg 78%
    20:00 +28°C° 0 mm 4 mps 752 mmHg 81%
    21:00 +27°C° 0 mm 4 mps 752 mmHg 84%
    22:00 +27°C° 0 mm 4 mps 753 mmHg 86%
    23:00 +26°C° 0 mm 3 mps 753 mmHg 88%

    2 April, Thursday

    Time Temperature Precipitation Wind Pressure Humidity
    00:00 +26°C° 0 mm 3 mps 752 mmHg 90%
    01:00 +26°C° 0 mm 3 mps 752 mmHg 91%
    02:00 +26°C° 0 mm 3 mps 752 mmHg 90%
    03:00 +26°C° 0 mm 3 mps 752 mmHg 89%
    04:00 +26°C° 0 mm 2 mps 752 mmHg 88%
    05:00 +26°C° 0 mm 2 mps 752 mmHg 86%
    06:00 +27°C° 0 mm 2 mps 752 mmHg 84%
    07:00 +27°C° 0 mm 2 mps 753 mmHg 81%
    08:00 +29°C° 0 mm 2 mps 753 mmHg 73%
    09:00 +30°C° 0 mm 1 mps 753 mmHg 65%
    10:00 +32°C° 0 mm 1 mps 754 mmHg 57%
    11:00 +34°C° 0 mm 2 mps 753 mmHg 53%
    12:00 +36°C° 0 mm 3 mps 752 mmHg 49%
    13:00 +37°C° 0 mm 4 mps 751 mmHg 45%
    14:00 +36°C° 0 mm 4 mps 750 mmHg 50%
    15:00 +34°C° 0 mm 5 mps 750 mmHg 56%
    16:00 +33°C° 0 mm 5 mps 750 mmHg 61%
    17:00 +32°C° 0 mm 5 mps 750 mmHg 67%
    18:00 +29°C° 0 mm 5 mps 751 mmHg 72%
    19:00 +28°C° 0 mm 4 mps 751 mmHg 78%
    20:00 +27°C° 0 mm 4 mps 752 mmHg 81%
    21:00 +27°C° 0 mm 4 mps 752 mmHg 84%
    22:00 +26°C° 0 mm 3 mps 753 mmHg 87%
    23:00 +26°C° 0 mm 3 mps 752 mmHg 88%

    3 April, Friday

    Time Temperature Precipitation Wind Pressure Humidity
    00:00 +26°C° 0 mm 3 mps 752 mmHg 88%
    01:00 +26°C° 0 mm 3 mps 752 mmHg 89%
    02:00 +26°C° 0 mm 3 mps 752 mmHg 88%
    03:00 +26°C° 0 mm 2 mps 752 mmHg 87%
    04:00 +26°C° 0 mm 2 mps 751 mmHg 87%
    05:00 +26°C° 0 mm 3 mps 752 mmHg 87%
    06:00 +26°C° 0 mm 3 mps 752 mmHg 88%
    07:00 +26°C° 0 mm 3 mps 752 mmHg 88%
    08:00 +28°C° 0 mm 3 mps 752 mmHg 79%
    09:00 +30°C° 0 mm 2 mps 753 mmHg 69%
    10:00 +31°C° 0 mm 2 mps 753 mmHg 60%
    11:00 +32°C° 0 mm 2 mps 752 mmHg 56%
    12:00 +34°C° 0 mm 2 mps 752 mmHg 53%
    13:00 +35°C° 0 mm 3 mps 751 mmHg 50%
    14:00 +34°C° 0 mm 3 mps 750 mmHg 55%
    15:00 +33°C° 0 mm 3 mps 750 mmHg 60%
    16:00 +32°C° 0 mm 4 mps 749 mmHg 65%
    17:00 +30°C° 0 mm 4 mps 750 mmHg 70%
    18:00 +29°C° 0 mm 4 mps 750 mmHg 75%
    19:00 +28°C° 0 mm 4 mps 750 mmHg 80%
    20:00 +27°C° 0 mm 4 mps 751 mmHg 83%
    21:00 +27°C° 0 mm 4 mps 751 mmHg 86%
    22:00 +26°C° 0 mm 4 mps 752 mmHg 89%
    23:00 +26°C° 0 mm 4 mps 752 mmHg 90%
    Show more